Location: Nitra
(0.0000°N, 18.0833°E)
Time: 13:29:28
(UTC+02:00)

Vanguard 2 - All Passes

Search period start: 30 March 2023 00:00
Search period end: 09 April 2023 00:00
Orbit: 552 x 2927 km, 32.9° (Epoch: 29 March)

Date Brightness Start Highest point End Pass type
(mag) Time Alt. Az. Time Alt. Az. Time Alt. Az.
30 Mar - 01:14:19 10° SW 01:25:57 82° SE 01:43:20 10° ENE visible
30 Mar - 03:25:04 10° W 03:38:57 45° NNW 03:55:37 10° NE visible
30 Mar - 05:42:47 10° WNW 05:54:32 21° NNW 06:05:47 10° NNE visible
30 Mar - 08:06:23 10° NNW 08:11:53 12° N 08:16:48 10° NNE daylight
30 Mar - 10:20:13 10° NNW 10:27:11 17° NNE 10:32:32 10° NE daylight
30 Mar - 12:30:20 10° NW 12:38:48 46° NNE 12:44:05 10° ESE daylight
30 Mar - 14:42:17 10° W 14:47:11 26° SW 14:50:54 10° SSE daylight
30 Mar - 23:23:16 10° SSW 23:31:40 37° SE 23:44:24 10° E night (unlit)
31 Mar - 01:30:40 10° WSW 01:42:27 81° NW 01:59:56 10° NE visible
31 Mar - 03:42:37 10° W 03:56:04 36° NNW 04:11:41 10° NNE visible
31 Mar - 06:02:06 10° NW 06:12:24 18° NNW 06:22:08 10° NNE visible
31 Mar - 08:23:39 10° NNW 08:29:55 13° N 08:35:21 10° NNE daylight
31 Mar - 10:35:50 10° NNW 10:44:27 23° NNE 10:50:34 10° ENE daylight
31 Mar - 12:46:33 10° NW 12:55:20 71° NNE 13:00:39 10° ESE daylight
31 Mar - 15:00:14 10° WSW 15:03:19 15° SW 15:05:57 10° S daylight
31 Mar - 23:39:01 10° SW 23:47:54 49° SE 00:02:00 10° ENE night (unlit)
01 Apr - 01:47:14 10° WSW 01:59:06 64° NNW 02:16:20 10° NE visible
01 Apr - 04:00:35 10° WNW 04:13:22 29° NNW 04:27:43 10° NNE visible
01 Apr - 06:21:25 10° NW 06:30:29 16° N 06:38:55 10° NNE visible
01 Apr - 08:40:05 10° NNW 08:47:47 15° N 08:54:08 10° NE daylight
01 Apr - 10:51:37 10° NNW 11:01:33 31° NNE 11:08:05 10° E daylight
01 Apr - 13:03:03 10° WNW 13:11:40 74° SW 13:16:55 10° SE daylight
01 Apr - 21:50:14 10° S 21:54:42 16° SE 22:00:21 10° ESE night (unlit)
01 Apr - 23:54:56 10° SW 00:04:08 66° SE 00:19:09 10° ENE night (unlit)
02 Apr - 02:04:04 10° WSW 02:15:53 51° NNW 02:32:31 10° NE visible
02 Apr - 04:18:58 10° WNW 04:30:54 24° NNW 04:43:51 10° NNE visible
02 Apr - 06:40:15 10° NNW 06:48:40 15° N 06:56:22 10° NNE daylight
02 Apr - 08:56:09 10° NNW 09:05:27 19° NNE 09:12:41 10° NE daylight
02 Apr - 11:07:33 10° NW 11:18:27 42° NNE 11:25:09 10° E daylight
02 Apr - 13:19:55 10° WNW 13:27:50 46° SW 13:32:52 10° SE daylight
02 Apr - 22:05:08 10° S 22:10:58 23° SE 22:19:16 10° E night (unlit)
03 Apr - 00:11:04 10° SW 00:20:27 86° SE 00:35:57 10° NE visible
03 Apr - 02:21:13 10° W 02:32:52 40° NNW 02:48:37 10° NE visible
03 Apr - 04:37:44 10° WNW 04:48:40 20° NNW 05:00:10 10° NNE visible
03 Apr - 06:58:13 10° NNW 07:06:50 15° N 07:14:32 10° NNE daylight
03 Apr - 09:12:05 10° NNW 09:22:54 24° NNE 09:30:48 10° ENE daylight
03 Apr - 11:23:41 10° NW 11:35:08 59° NNE 11:41:52 10° ESE daylight
03 Apr - 13:37:12 10° W 13:43:53 29° SW 13:48:29 10° SSE daylight
03 Apr - 22:20:30 10° SSW 22:27:07 34° SE 22:37:19 10° E night (unlit)
04 Apr - 00:27:24 10° WSW 00:36:54 74° NW 00:52:28 10° NE visible
04 Apr - 02:38:44 10° W 02:50:03 32° NNW 03:04:39 10° NNE visible
04 Apr - 04:56:42 10° NW 05:06:40 17° N 05:16:51 10° NNE visible
04 Apr - 07:15:20 10° NNW 07:24:53 17° N 07:33:09 10° NE daylight
04 Apr - 09:27:59 10° NNW 09:40:09 31° NNE 09:48:28 10° E daylight
04 Apr - 11:40:02 10° NW 11:51:37 84° NE 11:58:17 10° ESE daylight
04 Apr - 13:55:10 10° W 13:59:57 18° SW 14:03:38 10° S daylight
04 Apr - 22:36:10 10° SSW 22:43:12 48° SE 22:54:47 10° ENE night (unlit)
05 Apr - 00:43:57 10° WSW 00:53:31 57° NNW 01:08:45 10° NE visible
05 Apr - 02:56:39 10° WNW 03:07:25 26° NNW 03:20:43 10° NNE visible
05 Apr - 05:15:30 10° NW 05:24:49 16° N 05:34:06 10° NNE visible
05 Apr - 07:31:50 10° NNW 07:42:45 20° NNE 07:51:46 10° NE daylight
05 Apr - 09:43:57 10° NW 09:57:11 40° NNE 10:05:43 10° E daylight
05 Apr - 11:56:39 10° WNW 12:07:52 69° SW 12:14:25 10° SE daylight
05 Apr - 14:15:03 10° SW 14:16:06 10° SW 14:17:06 10° SSW daylight
05 Apr - 20:48:27 10° SSE 20:50:48 12° SE 20:53:30 10° ESE visible
05 Apr - 22:52:02 10° SW 22:59:20 68° SE 23:11:48 10° ENE night (unlit)
06 Apr - 01:00:49 10° W 01:10:20 44° NNW 01:24:52 10° NE visible
06 Apr - 03:14:58 10° WNW 03:25:01 21° NNW 03:36:54 10° NNE visible
06 Apr - 05:33:43 10° NNW 05:43:02 16° N 05:52:05 10° NE visible
06 Apr - 07:48:02 10° NNW 08:00:22 24° NNE 08:10:05 10° ENE daylight
06 Apr - 10:00:01 10° NW 10:14:00 53° NNE 10:22:36 10° ESE daylight
06 Apr - 12:13:36 10° WNW 12:23:59 47° SW 12:30:19 10° SSE daylight
06 Apr - 21:02:40 10° S 21:06:58 19° SE 21:12:44 10° E visible
06 Apr - 23:08:09 10° SW 23:15:34 88° NW 23:28:27 10° NE night (unlit)
07 Apr - 01:17:59 10° W 01:27:20 34° NNW 01:40:51 10° NE visible
07 Apr - 03:33:35 10° NW 03:42:50 18° N 03:53:21 10° NNE visible
07 Apr - 05:51:11 10° NNW 06:01:11 17° N 06:10:39 10° NE visible
07 Apr - 08:04:03 10° NNW 08:17:45 30° NNE 08:28:00 10° ENE daylight
07 Apr - 10:16:14 10° NW 10:30:37 70° NNE 10:39:11 10° ESE daylight
07 Apr - 12:30:59 10° W 12:40:01 32° SW 12:45:56 10° SSE daylight
07 Apr - 21:17:51 10° SSW 21:23:00 30° SE 21:30:41 10° E visible
07 Apr - 23:24:29 10° WSW 23:32:00 65° NNW 23:44:50 10° NE night (unlit)
08 Apr - 01:35:32 10° WNW 01:44:31 27° NNW 01:56:48 10° NNE visible
08 Apr - 03:52:14 10° NW 04:00:51 16° N 04:10:17 10° NNE visible
08 Apr - 06:07:58 10° NNW 06:19:11 19° NNE 06:29:27 10° NE visible
08 Apr - 08:20:02 10° NW 08:34:54 38° NNE 08:45:30 10° E daylight
08 Apr - 10:32:39 10° NW 10:47:02 88° SSW 10:55:29 10° SE daylight
08 Apr - 12:48:57 10° W 12:56:04 22° SW 13:01:11 10° S daylight
08 Apr - 21:33:26 10° SSW 21:39:00 46° SE 21:47:59 10° ENE visible
